Miscellaneous Local Product
Issued by NWS Hastings, NE

Home | Current Version | Previous Version | Text Only | Print | Product List | Glossary On
Versions: 1 2 3 4 5 6 7 8 9 10 11 12 13 14 15 16 17 18 19 20 21 22 23 24 25 26 27 28 29 30 31 32 33 34 35 36 37 38 39 40 41 42 43 44 45 46 47 48 49 50
000
AXUS43 KGID 241202
MISGRI

GID CWA HOURLY WEATHER ROUNDUP
NATIONAL WEATHER SERVICE HASTINGS NE
700 AM CDT THU APR 24 2014

NOTE: "FAIR" INDICATES FEW OR NO CLOUDS BELOW 12,000 FEET WITH NO
SIGNIFICANT WEATHER AND/OR OBSTRUCTIONS TO VISIBILITY.

...SOUTH CENTRAL NEBRASKA...

CITY           SKY/WX    TMP DP  RH WIND       PRES   REMARKS
GRAND ISLAND   CLOUDY    50  45  83 NW13      29.75R
HASTINGS       CLOUDY    51  43  74 NW17G24   29.74R
KEARNEY        CLOUDY    50  43  76 NW10      29.78R
ORD            CLOUDY    49  39  68 NW10      29.75R
YORK           LGT RAIN  50  50 100 NW10      29.68F
AURORA         CLOUDY    51  49  91 NW13      29.70S
LEXINGTON      MOCLDY    50  38  65 NW6       29.80R
HOLDREGE       CLOUDY    51  41  69 NW10      29.77R
HEBRON         LGT RAIN  52  49  90 N16G25    29.65R

...NEBRASKA PANHANDLE...

CITY           SKY/WX    TMP DP  RH WIND       PRES   REMARKS
CHADRON        CLEAR     34  29  82 SW6       29.91R WCI  29
ALLIANCE       CLEAR     27  25  92 W8        29.90S WCI  19
SCOTTSBLUFF    CLEAR     30  24  78 NW6       29.95R WCI  24
SIDNEY         CLEAR     35  21  56 W10       29.94R WCI  27

...WESTERN AND NORTH CENTRAL NEBRASKA...

CITY           SKY/WX    TMP DP  RH WIND       PRES   REMARKS
VALENTINE      PTCLDY    41  32  70 W12       29.82R
AINSWORTH      MOCLDY    46  34  62 NW10      29.80R
ONEILL         CLOUDY    51  35  53 NW16G22   29.75R
BROKEN BOW     CLOUDY    48  34  58 NW13      29.79R
IMPERIAL       CLOUDY    46  35  65 NW14      29.89R
NORTH PLATTE   MOCLDY    44  34  67 W12       29.84R
MCCOOK         CLOUDY    51  35  54 N14       29.83R

...EASTERN NEBRASKA...

CITY           SKY/WX    TMP DP  RH WIND       PRES   REMARKS
NORFOLK        CLOUDY    51  44  77 NW14      29.66S
SO SIOUX CITY  CLOUDY    48  45  89 CALM      29.65S
TEKAMAH        CLOUDY    49  46  90 SW3       29.66R
COLUMBUS       CLOUDY    52  45  76 NW9       29.68S
ALBION         CLOUDY    51  42  72 NW12      29.69R
OMAHA EPPLEY   RAIN      49  46  90 W5        29.68R FOG
OFFUTT AFB     HVY RAIN  49  49 100 SW6       29.69R FOG
MILLARD        RAIN      49  46  92 NW8       29.67R
LINCOLN        LGT RAIN  51  48  89 N10       29.62F FOG
NEBRASKA CITY  HVY RAIN  50  50 100 NW13      29.68R
BEATRICE       LGT RAIN  52  50  95 E5        29.61F
FALLS CITY     HVY RAIN  53  52  96 W15       29.67R FOG

...NORTHERN KANSAS...

CITY           SKY/WX    TMP DP  RH WIND       PRES   REMARKS
GOODLAND       CLOUDY    46  33  60 N16       29.90R
HILL CITY      CLOUDY    52  41  66 N15       29.78R
PHILLIPSBURG   PTCLDY    54  43  66 NW15G22   29.76R
SMITH CENTER   CLOUDY    50  45  81 NW17      29.73R
BELOIT         MOCLDY    52  46  82 NW13      29.71R
HAYS           PTCLDY    52  45  76 NW15      29.75R
RUSSELL        NOT AVBL
CONCORDIA      CLOUDY    52  51  97 NW14      29.68R
SALINA         CLOUDY    55  51  86 NW13      29.68R
TOPEKA         HVY RAIN  59  56  89 NW17G32   29.66R VSB 1



USA.gov is the U.S. government's official web portal to all federal, state and local government web resources and services.